Погода в Громовке

Украина / Херсонская область     46°18′33″N   34°05′38″E
темп.,
°C
ветер,
м/с
пор.,
м/с
влажн.,
%
обл.,
%
осадки,
мм/ч
давл.,
гПа
погр.,
м
20 января, ср
ср2023:00−11ссз35790 0.0 1023301
02:00−11ссз23780 0.0 1024204
05:00−11св22790 0.0 1024133
08:00−10в22790 0.0 1024152
11:00−7в33710 0.0 1025314
14:00−5в447033 0.0 1024355
17:00−5в677790 0.0 1025308
20:00−4в588583 0.0 1025326
21 января, чт
чт2123:00−2вюв578999 0.1 1025341
02:00−1вюв579199 0.1 1025301
05:000вюв469196 0.0 1025269
08:00+1юв578993 0.1 1026289
11:00+2юв678673 0.0 1026353
14:00+3юв688673 0.0 1025324
17:00+2ююв688657 0.0 1025191
20:00+3ю589058 0.0 1025167
22 января, пт
пт2223:00+3ю699120 0.0 1025216
02:00+4ююз6119311 0.0 1024225
05:00+4ююз6109146 0.0 1023218
08:00+5ю7118970 0.0 1023274
11:00+6ю7138191 0.0 1022428
14:00+7ююз6118381 0.0 1021263
17:00+6ю5108799 0.0 1020179
20:00+5ю61188100 0.0 1020263
23 января, сб
сб2323:00+5ю6128479 0.0 1019239
02:00+5ю7138155 0.0 1019278
05:00+6ю7138177 0.0 1018259
08:00+6ю7138462 0.0 1018278
11:00+9ююз713800 0.0 1018459
14:00+10ююз8137814 0.0 1016529
17:00+8ююз7138035 0.0 1016297
20:00+8ю8147758 0.0 1016305
24 января, вс
вс2423:00+7ю71276100 0.0 1016225
02:00+7ююв6107555 0.0 1015143
05:00+7ююв686698 0.0 1014110
08:00+6ююв7107198 0.0 1014136
11:00+9ююв696397 0.0 1013144
14:00+11ю6105998 0.0 1011464
17:00+10ююв576699 0.0 101188
20:00+9ююв697299 0.2 1010203